Time,TemperatureF,DewpointF,PressureIn,WindDirection,WindDirectionDegrees,WindSpeedMPH,WindSpeedGustMPH,Humidity,HourlyPrecipIn,Conditions,Clouds,dailyrainin,SoftwareType,DateUTC
2013-06-26 00:04:00,79.0,73.7,29.77,West,259,6.0,8.0,84,0.00,,,0.00,Wunderground v.1.15,2013-06-26 05:04:00,
2013-06-26 00:09:00,79.0,73.7,29.76,West,261,6.0,8.0,84,0.00,,,0.00,Wunderground v.1.15,2013-06-26 05:09:00,
2013-06-26 00:15:00,78.9,73.7,29.76,West,264,6.0,8.0,84,0.00,,,0.00,Wunderground v.1.15,2013-06-26 05:15:00,
2013-06-26 00:20:00,79.0,73.7,29.75,West,263,7.0,8.0,84,0.00,,,0.00,Wunderground v.1.15,2013-06-26 05:20:00,
2013-06-26 00:26:00,78.9,73.7,29.75,West,260,8.0,12.0,84,0.00,,,0.00,Wunderground v.1.15,2013-06-26 05:26:00,
2013-06-26 00:31:00,78.9,73.3,29.74,West,265,9.0,12.0,83,0.00,,,0.00,Wunderground v.1.15,2013-06-26 05:31:00,
2013-06-26 00:37:00,78.9,73.3,29.74,WSW,257,8.0,12.0,83,0.00,,,0.00,Wunderground v.1.15,2013-06-26 05:37:00,
2013-06-26 00:42:00,78.7,73.1,29.74,West,269,8.0,9.0,83,0.00,,,0.00,Wunderground v.1.15,2013-06-26 05:42:00,
2013-06-26 00:47:00,78.6,73.4,29.74,West,275,8.0,9.0,84,0.00,,,0.00,Wunderground v.1.15,2013-06-26 05:47:00,
2013-06-26 00:53:00,78.6,73.4,29.74,West,272,8.0,10.0,84,0.00,,,0.00,Wunderground v.1.15,2013-06-26 05:53:00,
2013-06-26 00:59:00,78.4,73.2,29.73,West,261,9.0,10.0,84,0.00,,,0.00,Wunderground v.1.15,2013-06-26 05:59:00,
2013-06-26 01:04:00,78.3,73.1,29.73,West,265,8.0,10.0,84,0.00,,,0.00,Wunderground v.1.15,2013-06-26 06:04:00,
2013-06-26 01:09:00,78.1,72.9,29.73,WSW,258,9.0,10.0,84,0.00,,,0.00,Wunderground v.1.15,2013-06-26 06:09:00,
2013-06-26 01:15:00,78.0,72.8,29.73,WNW,288,8.0,13.0,84,0.00,,,0.00,Wunderground v.1.15,2013-06-26 06:15:00,
2013-06-26 01:21:00,78.1,72.5,29.73,West,275,8.0,9.0,83,0.00,,,0.00,Wunderground v.1.15,2013-06-26 06:21:00,
2013-06-26 01:26:00,78.2,72.6,29.73,West,279,8.0,9.0,83,0.00,,,0.00,Wunderground v.1.15,2013-06-26 06:26:00,
2013-06-26 01:32:00,78.4,72.4,29.73,West,265,8.0,10.0,82,0.00,,,0.00,Wunderground v.1.15,2013-06-26 06:32:00,
2013-06-26 01:37:00,78.5,72.2,29.71,West,261,8.0,10.0,81,0.00,,,0.00,Wunderground v.1.15,2013-06-26 06:37:00,
2013-06-26 01:43:00,78.7,72.0,29.71,WSW,242,9.0,9.0,80,0.00,,,0.00,Wunderground v.1.15,2013-06-26 06:43:00,
2013-06-26 01:48:00,79.0,71.9,29.71,West,280,9.0,11.0,79,0.00,,,0.00,Wunderground v.1.15,2013-06-26 06:48:00,
2013-06-26 01:54:00,79.0,71.9,29.70,West,263,9.0,9.0,79,0.00,,,0.00,Wunderground v.1.15,2013-06-26 06:54:00,
2013-06-26 01:59:00,78.9,71.8,29.71,West,259,8.0,9.0,79,0.00,,,0.00,Wunderground v.1.15,2013-06-26 06:59:00,
2013-06-26 02:05:00,78.9,71.8,29.71,West,275,7.0,10.0,79,0.00,,,0.00,Wunderground v.1.15,2013-06-26 07:05:00,
2013-06-26 02:10:00,78.9,71.8,29.72,West,259,7.0,9.0,79,0.00,,,0.00,Wunderground v.1.15,2013-06-26 07:10:00,
2013-06-26 02:16:00,78.9,71.8,29.73,WNW,290,8.0,10.0,79,0.00,,,0.00,Wunderground v.1.15,2013-06-26 07:16:00,
2013-06-26 02:21:00,78.9,71.8,29.72,WSW,258,9.0,11.0,79,0.00,,,0.00,Wunderground v.1.15,2013-06-26 07:21:00,
2013-06-26 02:27:00,78.8,71.7,29.72,West,260,9.0,11.0,79,0.00,,,0.00,Wunderground v.1.15,2013-06-26 07:27:00,
2013-06-26 02:32:00,78.8,71.4,29.70,West,263,9.0,10.0,78,0.00,,,0.00,Wunderground v.1.15,2013-06-26 07:32:00,
2013-06-26 02:38:00,78.7,71.6,29.70,West,270,8.0,13.0,79,0.00,,,0.00,Wunderground v.1.15,2013-06-26 07:38:00,
2013-06-26 02:43:00,78.5,71.4,29.70,West,259,8.0,12.0,79,0.00,,,0.00,Wunderground v.1.15,2013-06-26 07:43:00,
2013-06-26 02:49:00,78.4,71.7,29.70,WSW,238,9.0,18.0,80,0.00,,,0.00,Wunderground v.1.15,2013-06-26 07:49:00,
2013-06-26 02:54:00,78.2,71.5,29.71,WNW,285,8.0,9.0,80,0.00,,,0.00,Wunderground v.1.15,2013-06-26 07:54:00,
2013-06-26 03:00:00,77.4,71.5,29.71,West,272,7.0,9.0,82,0.00,,,0.00,Wunderground v.1.15,2013-06-26 08:00:00,
2013-06-26 03:09:00,75.3,71.2,29.73,NW,315,14.0,22.0,87,0.19,,,0.02,Wunderground v.1.15,2013-06-26 08:09:00,
2013-06-26 03:15:00,73.9,70.5,29.74,WNW,296,14.0,16.0,89,0.10,,,0.03,Wunderground v.1.15,2013-06-26 08:15:00,
2013-06-26 03:21:00,73.3,70.5,29.77,NW,313,10.0,11.0,91,0.12,,,0.04,Wunderground v.1.15,2013-06-26 08:21:00,
2013-06-26 03:26:00,72.8,70.0,29.75,WNW,297,7.0,11.0,91,0.06,,,0.05,Wunderground v.1.15,2013-06-26 08:26:00,
2013-06-26 03:32:00,72.2,69.4,29.72,West,272,9.0,19.0,91,0.09,,,0.06,Wunderground v.1.15,2013-06-26 08:32:00,
2013-06-26 03:37:00,71.2,67.8,29.67,West,273,12.0,19.0,89,0.67,,,0.10,Wunderground v.1.15,2013-06-26 08:37:00,
2013-06-26 03:38:00,71.0,67.6,29.67,West,267,13.0,19.0,89,1.08,,,0.11,Wunderground v.1.15,2013-06-26 08:38:00,
2013-06-26 03:44:00,70.0,67.3,29.69,West,276,13.0,14.0,91,0.16,,,0.13,Wunderground v.1.15,2013-06-26 08:44:00,
2013-06-26 03:50:00,69.5,66.1,29.68,West,272,14.0,25.0,89,0.07,,,0.13,Wunderground v.1.15,2013-06-26 08:50:00,
2013-06-26 03:55:00,70.2,65.8,29.68,WSW,251,19.0,26.0,86,0.04,,,0.13,Wunderground v.1.15,2013-06-26 08:55:00,
2013-06-26 04:01:00,69.9,65.9,29.68,West,265,19.0,20.0,87,0.00,,,0.13,Wunderground v.1.15,2013-06-26 09:01:00,
2013-06-26 04:06:00,70.7,65.3,29.69,West,275,16.0,21.0,83,0.00,,,0.13,Wunderground v.1.15,2013-06-26 09:06:00,
2013-06-26 04:12:00,70.6,65.2,29.69,West,266,14.0,14.0,83,0.00,,,0.13,Wunderground v.1.15,2013-06-26 09:12:00,
2013-06-26 04:17:00,70.5,65.1,29.70,WSW,255,14.0,14.0,83,0.00,,,0.13,Wunderground v.1.15,2013-06-26 09:17:00,
2013-06-26 04:23:00,70.7,64.9,29.70,West,271,15.0,15.0,82,0.00,,,0.13,Wunderground v.1.15,2013-06-26 09:23:00,
2013-06-26 04:28:00,70.7,64.9,29.70,West,260,14.0,15.0,82,0.00,,,0.13,Wunderground v.1.15,2013-06-26 09:28:00,
2013-06-26 04:34:00,70.4,65.0,29.70,West,267,13.0,16.0,83,0.00,,,0.13,Wunderground v.1.15,2013-06-26 09:34:00,
2013-06-26 04:39:00,70.5,65.1,29.71,West,279,13.0,16.0,83,0.00,,,0.13,Wunderground v.1.15,2013-06-26 09:39:00,
2013-06-26 04:45:00,70.6,65.2,29.71,West,272,12.0,16.0,83,0.00,,,0.13,Wunderground v.1.15,2013-06-26 09:45:00,
2013-06-26 04:50:00,70.6,65.2,29.71,West,268,12.0,12.0,83,0.00,,,0.13,Wunderground v.1.15,2013-06-26 09:50:00,
2013-06-26 04:56:00,70.4,65.0,29.71,WSW,257,11.0,14.0,83,0.00,,,0.13,Wunderground v.1.15,2013-06-26 09:56:00,
2013-06-26 05:02:00,70.2,65.1,29.70,WSW,256,10.0,11.0,84,0.00,,,0.13,Wunderground v.1.15,2013-06-26 10:02:00,
2013-06-26 05:08:00,70.2,65.1,29.70,West,271,10.0,11.0,84,0.00,,,0.13,Wunderground v.1.15,2013-06-26 10:08:00,
2013-06-26 05:14:00,70.3,65.2,29.70,West,267,9.0,11.0,84,0.00,,,0.13,Wunderground v.1.15,2013-06-26 10:14:00,
2013-06-26 05:27:00,70.7,66.0,29.70,West,261,9.0,11.0,85,0.00,,,0.13,Wunderground v.1.15,2013-06-26 10:27:00,
2013-06-26 05:32:00,70.8,66.1,29.70,WSW,256,9.0,9.0,85,0.00,,,0.13,Wunderground v.1.15,2013-06-26 10:32:00,
2013-06-26 05:38:00,70.7,66.3,29.70,West,265,9.0,12.0,86,0.00,,,0.13,Wunderground v.1.15,2013-06-26 10:38:00,
2013-06-26 05:43:00,70.7,66.3,29.70,WSW,253,8.0,9.0,86,0.00,,,0.13,Wunderground v.1.15,2013-06-26 10:43:00,
2013-06-26 05:49:00,70.8,66.7,29.70,WSW,254,8.0,9.0,87,0.00,,,0.13,Wunderground v.1.15,2013-06-26 10:49:00,
2013-06-26 05:55:00,70.8,66.7,29.71,WSW,248,7.0,9.0,87,0.00,,,0.13,Wunderground v.1.15,2013-06-26 10:55:00,
2013-06-26 06:01:00,70.7,66.6,29.70,WSW,256,7.0,9.0,87,0.00,,,0.13,Wunderground v.1.15,2013-06-26 11:01:00,
2013-06-26 06:06:00,70.8,66.7,29.70,WSW,248,6.0,9.0,87,0.00,,,0.13,Wunderground v.1.15,2013-06-26 11:06:00,
2013-06-26 06:12:00,70.8,66.7,29.70,WSW,244,6.0,9.0,87,0.00,,,0.13,Wunderground v.1.15,2013-06-26 11:12:00,
2013-06-26 06:18:00,70.8,66.7,29.70,West,263,6.0,9.0,87,0.00,,,0.13,Wunderground v.1.15,2013-06-26 11:18:00,
2013-06-26 06:24:00,71.0,66.9,29.70,WSW,248,7.0,9.0,87,0.00,,,0.13,Wunderground v.1.15,2013-06-26 11:24:00,
2013-06-26 06:30:00,71.1,67.0,29.71,SW,234,7.0,9.0,87,0.00,,,0.13,Wunderground v.1.15,2013-06-26 11:30:00,
2013-06-26 06:35:00,71.2,66.8,29.71,WSW,245,7.0,9.0,86,0.00,,,0.13,Wunderground v.1.15,2013-06-26 11:35:00,
2013-06-26 06:41:00,71.3,67.2,29.71,WSW,238,7.0,9.0,87,0.00,,,0.13,Wunderground v.1.15,2013-06-26 11:41:00,
2013-06-26 06:46:00,71.4,67.3,29.71,WSW,238,6.0,9.0,87,0.00,,,0.13,Wunderground v.1.15,2013-06-26 11:46:00,
2013-06-26 06:52:00,71.5,67.4,29.71,WSW,257,6.0,9.0,87,0.00,,,0.13,Wunderground v.1.15,2013-06-26 11:52:00,
2013-06-26 06:58:00,71.7,67.6,29.72,WSW,257,5.0,9.0,87,0.00,,,0.13,Wunderground v.1.15,2013-06-26 11:58:00,
2013-06-26 07:03:00,71.9,67.5,29.72,WSW,249,4.0,9.0,86,0.00,,,0.13,Wunderground v.1.15,2013-06-26 12:03:00,
2013-06-26 07:09:00,72.1,67.7,29.72,WSW,246,4.0,9.0,86,0.00,,,0.13,Wunderground v.1.15,2013-06-26 12:09:00,
2013-06-26 07:14:00,72.3,67.9,29.73,WSW,240,6.0,9.0,86,0.00,,,0.13,Wunderground v.1.15,2013-06-26 12:14:00,
2013-06-26 07:23:00,72.4,68.0,29.72,WSW,242,5.0,9.0,86,0.00,,,0.13,Wunderground v.1.15,2013-06-26 12:23:00,
2013-06-26 07:35:00,72.5,68.4,29.73,SW,226,4.0,9.0,87,0.00,,,0.13,Wunderground v.1.15,2013-06-26 12:35:00,
2013-06-26 07:41:00,72.5,68.4,29.73,WSW,241,5.0,9.0,87,0.00,,,0.13,Wunderground v.1.15,2013-06-26 12:41:00,
2013-06-26 07:46:00,72.6,68.5,29.73,SW,230,5.0,9.0,87,0.00,,,0.13,Wunderground v.1.15,2013-06-26 12:46:00,
2013-06-26 07:51:00,72.6,68.5,29.73,WSW,238,5.0,9.0,87,0.00,,,0.13,Wunderground v.1.15,2013-06-26 12:51:00,
2013-06-26 07:57:00,72.6,68.8,29.73,WSW,247,5.0,9.0,88,0.00,,,0.13,Wunderground v.1.15,2013-06-26 12:57:00,
2013-06-26 08:03:00,72.6,68.8,29.73,WSW,237,5.0,9.0,88,0.00,,,0.13,Wunderground v.1.15,2013-06-26 13:03:00,
2013-06-26 08:08:00,72.7,68.9,29.73,WSW,252,6.0,9.0,88,0.00,,,0.13,Wunderground v.1.15,2013-06-26 13:08:00,
2013-06-26 08:13:00,72.7,68.9,29.73,West,261,6.0,9.0,88,0.00,,,0.13,Wunderground v.1.15,2013-06-26 13:13:00,
2013-06-26 08:19:00,72.7,69.3,29.73,WSW,246,5.0,9.0,89,0.00,,,0.13,Wunderground v.1.15,2013-06-26 13:19:00,
2013-06-26 08:25:00,72.7,69.3,29.73,WSW,246,4.0,9.0,89,0.00,,,0.13,Wunderground v.1.15,2013-06-26 13:25:00,
2013-06-26 08:30:00,72.7,69.3,29.73,WSW,242,5.0,9.0,89,0.00,,,0.13,Wunderground v.1.15,2013-06-26 13:30:00,
2013-06-26 08:36:00,72.9,69.5,29.72,SW,235,6.0,9.0,89,0.00,,,0.13,Wunderground v.1.15,2013-06-26 13:36:00,
2013-06-26 08:41:00,73.0,69.6,29.72,WSW,239,6.0,9.0,89,0.00,,,0.13,Wunderground v.1.15,2013-06-26 13:41:00,
2013-06-26 08:47:00,73.3,69.9,29.72,WSW,238,6.0,9.0,89,0.00,,,0.13,Wunderground v.1.15,2013-06-26 13:47:00,
2013-06-26 08:52:00,73.4,70.0,29.72,WSW,243,6.0,9.0,89,0.00,,,0.13,Wunderground v.1.15,2013-06-26 13:52:00,
2013-06-26 08:58:00,73.6,70.2,29.72,WSW,258,6.0,9.0,89,0.00,,,0.13,Wunderground v.1.15,2013-06-26 13:58:00,
2013-06-26 09:03:00,73.8,70.4,29.72,WSW,255,6.0,9.0,89,0.00,,,0.13,Wunderground v.1.15,2013-06-26 14:03:00,
2013-06-26 09:09:00,73.9,70.5,29.72,WSW,256,6.0,9.0,89,0.00,,,0.13,Wunderground v.1.15,2013-06-26 14:09:00,
2013-06-26 09:15:00,74.1,70.6,29.72,WSW,254,6.0,9.0,89,0.00,,,0.13,Wunderground v.1.15,2013-06-26 14:15:00,
2013-06-26 09:20:00,74.3,70.8,29.72,West,268,6.0,9.0,89,0.00,,,0.13,Wunderground v.1.15,2013-06-26 14:20:00,
2013-06-26 09:26:00,74.7,70.9,29.72,West,267,7.0,9.0,88,0.00,,,0.13,Wunderground v.1.15,2013-06-26 14:26:00,
2013-06-26 09:31:00,75.0,71.2,29.72,West,265,7.0,9.0,88,0.00,,,0.13,Wunderground v.1.15,2013-06-26 14:31:00,
2013-06-26 09:37:00,75.4,71.6,29.71,West,271,7.0,9.0,88,0.00,,,0.13,Wunderground v.1.15,2013-06-26 14:37:00,
2013-06-26 09:42:00,75.9,72.1,29.71,West,279,7.0,10.0,88,0.00,,,0.13,Wunderground v.1.15,2013-06-26 14:42:00,
2013-06-26 09:54:00,76.4,72.2,29.71,West,261,7.0,9.0,87,0.00,,,0.13,Wunderground v.1.15,2013-06-26 14:54:00,
2013-06-26 09:59:00,76.8,72.6,29.71,West,275,7.0,10.0,87,0.00,,,0.13,Wunderground v.1.15,2013-06-26 14:59:00,
2013-06-26 10:05:00,77.0,72.5,29.71,West,259,7.0,11.0,86,0.00,,,0.13,Wunderground v.1.15,2013-06-26 15:05:00,
2013-06-26 10:10:00,77.4,72.9,29.71,West,271,8.0,8.0,86,0.00,,,0.13,Wunderground v.1.15,2013-06-26 15:10:00,
2013-06-26 10:16:00,77.8,72.9,29.71,West,281,9.0,10.0,85,0.00,,,0.13,Wunderground v.1.15,2013-06-26 15:16:00,
2013-06-26 10:21:00,78.1,73.2,29.71,WNW,282,9.0,11.0,85,0.00,,,0.13,Wunderground v.1.15,2013-06-26 15:21:00,
2013-06-26 10:27:00,78.8,74.3,29.71,WNW,284,8.0,11.0,86,0.00,,,0.13,Wunderground v.1.15,2013-06-26 15:27:00,
2013-06-26 10:32:00,79.5,74.2,29.71,WNW,302,8.0,12.0,84,0.00,,,0.13,Wunderground v.1.15,2013-06-26 15:32:00,
2013-06-26 10:38:00,79.8,73.8,29.71,WNW,298,9.0,14.0,82,0.00,,,0.13,Wunderground v.1.15,2013-06-26 15:38:00,
2013-06-26 10:43:00,80.2,74.6,29.72,WNW,302,7.0,9.0,83,0.00,,,0.13,Wunderground v.1.15,2013-06-26 15:43:00,
2013-06-26 10:49:00,80.3,73.9,29.72,NW,319,5.0,9.0,81,0.00,,,0.13,Wunderground v.1.15,2013-06-26 15:49:00,
2013-06-26 10:54:00,80.4,74.4,29.72,WNW,297,4.0,9.0,82,0.00,,,0.13,Wunderground v.1.15,2013-06-26 15:54:00,
2013-06-26 11:00:00,80.3,74.3,29.72,NW,320,5.0,5.0,82,0.00,,,0.13,Wunderground v.1.15,2013-06-26 16:00:00,
2013-06-26 11:05:00,80.5,74.5,29.72,WNW,298,6.0,9.0,82,0.00,,,0.13,Wunderground v.1.15,2013-06-26 16:05:00,
2013-06-26 11:11:00,80.6,74.6,29.72,NW,307,6.0,9.0,82,0.00,,,0.13,Wunderground v.1.15,2013-06-26 16:11:00,
2013-06-26 11:16:00,80.8,74.4,29.72,NW,315,7.0,10.0,81,0.00,,,0.13,Wunderground v.1.15,2013-06-26 16:16:00,
2013-06-26 11:22:00,81.3,74.5,29.72,NNW,339,4.0,9.0,80,0.00,,,0.13,Wunderground v.1.15,2013-06-26 16:22:00,
2013-06-26 11:28:00,81.9,74.7,29.73,NW,321,1.0,9.0,79,0.00,,,0.13,Wunderground v.1.15,2013-06-26 16:28:00,
2013-06-26 11:34:00,81.8,74.6,29.73,NW,320,2.0,9.0,79,0.00,,,0.13,Wunderground v.1.15,2013-06-26 16:34:00,
2013-06-26 11:39:00,81.5,74.7,29.73,NW,307,4.0,9.0,80,0.00,,,0.13,Wunderground v.1.15,2013-06-26 16:39:00,
2013-06-26 11:45:00,81.8,75.0,29.73,NW,319,4.0,9.0,80,0.00,,,0.13,Wunderground v.1.15,2013-06-26 16:45:00,
2013-06-26 11:51:00,82.1,75.3,29.73,ENE,63,2.0,9.0,80,0.00,,,0.13,Wunderground v.1.15,2013-06-26 16:51:00,
2013-06-26 11:56:00,82.1,74.9,29.73,NE,55,3.0,9.0,79,0.00,,,0.13,Wunderground v.1.15,2013-06-26 16:56:00,
2013-06-26 12:02:00,82.2,75.4,29.73,North,10,3.0,9.0,80,0.00,,,0.13,Wunderground v.1.15,2013-06-26 17:02:00,
2013-06-26 12:07:00,82.3,74.7,29.73,NE,54,2.0,9.0,78,0.00,,,0.13,Wunderground v.1.15,2013-06-26 17:07:00,
2013-06-26 12:13:00,83.0,75.4,29.73,ENE,59,2.0,9.0,78,0.00,,,0.13,Wunderground v.1.15,2013-06-26 17:13:00,
2013-06-26 12:18:00,82.7,75.1,29.74,NE,54,3.0,9.0,78,0.00,,,0.13,Wunderground v.1.15,2013-06-26 17:18:00,
2013-06-26 12:32:00,81.7,74.9,29.74,ENE,71,3.0,9.0,80,0.00,,,0.13,Wunderground v.1.15,2013-06-26 17:32:00,
2013-06-26 12:38:00,81.8,75.4,29.74,ENE,78,2.0,9.0,81,0.00,,,0.13,Wunderground v.1.15,2013-06-26 17:38:00,
2013-06-26 12:44:00,82.0,75.2,29.74,East,84,2.0,9.0,80,0.00,,,0.13,Wunderground v.1.15,2013-06-26 17:44:00,
2013-06-26 12:49:00,82.1,74.9,29.74,ENE,64,2.0,9.0,79,0.00,,,0.13,Wunderground v.1.15,2013-06-26 17:49:00,
2013-06-26 12:55:00,82.3,75.5,29.74,ENE,59,2.0,9.0,80,0.00,,,0.13,Wunderground v.1.15,2013-06-26 17:55:00,
2013-06-26 13:00:00,82.9,75.7,29.74,NW,313,1.0,1.0,79,0.00,,,0.13,Wunderground v.1.15,2013-06-26 18:00:00,
2013-06-26 13:06:00,83.6,76.0,29.74,NW,313,1.0,9.0,78,0.00,,,0.13,Wunderground v.1.15,2013-06-26 18:06:00,
2013-06-26 13:11:00,83.5,75.9,29.74,NW,313,1.0,9.0,78,0.00,,,0.13,Wunderground v.1.15,2013-06-26 18:11:00,
2013-06-26 13:16:00,84.3,76.7,29.74,NW,317,1.0,9.0,78,0.00,,,0.13,Wunderground v.1.15,2013-06-26 18:16:00,
2013-06-26 13:22:00,84.3,75.5,29.73,NW,317,2.0,2.0,75,0.00,,,0.13,Wunderground v.1.15,2013-06-26 18:22:00,
2013-06-26 13:27:00,84.2,76.2,29.73,WNW,288,2.0,9.0,77,0.00,,,0.13,Wunderground v.1.15,2013-06-26 18:27:00,
2013-06-26 13:32:00,84.2,76.6,29.73,NW,306,2.0,9.0,78,0.00,,,0.13,Wunderground v.1.15,2013-06-26 18:32:00,
2013-06-26 13:38:00,84.3,75.9,29.73,WNW,293,2.0,9.0,76,0.00,,,0.13,Wunderground v.1.15,2013-06-26 18:38:00,
2013-06-26 13:44:00,84.8,77.6,29.73,WNW,300,3.0,9.0,79,0.00,,,0.13,Wunderground v.1.15,2013-06-26 18:44:00,
2013-06-26 13:49:00,85.1,77.1,29.73,WNW,300,1.0,9.0,77,0.00,,,0.13,Wunderground v.1.15,2013-06-26 18:49:00,
2013-06-26 13:55:00,85.7,77.3,29.73,NW,308,1.0,9.0,76,0.00,,,0.13,Wunderground v.1.15,2013-06-26 18:55:00,
2013-06-26 14:00:00,85.8,77.4,29.72,NW,308,1.0,1.0,76,0.00,,,0.13,Wunderground v.1.15,2013-06-26 19:00:00,
2013-06-26 14:06:00,85.9,77.1,29.72,WNW,293,2.0,9.0,75,0.00,,,0.13,Wunderground v.1.15,2013-06-26 19:06:00,
2013-06-26 14:11:00,85.8,77.4,29.73,WNW,298,2.0,9.0,76,0.00,,,0.13,Wunderground v.1.15,2013-06-26 19:11:00,
2013-06-26 14:17:00,86.0,77.5,29.73,WNW,294,2.0,9.0,76,0.00,,,0.13,Wunderground v.1.15,2013-06-26 19:17:00,
2013-06-26 14:22:00,86.0,77.5,29.73,NW,309,3.0,9.0,76,0.00,,,0.13,Wunderground v.1.15,2013-06-26 19:22:00,
2013-06-26 14:28:00,86.8,78.3,29.73,WNW,302,2.0,9.0,76,0.00,,,0.13,Wunderground v.1.15,2013-06-26 19:28:00,
2013-06-26 14:40:00,87.3,78.0,29.72,NW,311,2.0,9.0,74,0.00,,,0.13,Wunderground v.1.15,2013-06-26 19:40:00,
2013-06-26 14:46:00,87.3,78.4,29.72,WNW,290,3.0,9.0,75,0.00,,,0.13,Wunderground v.1.15,2013-06-26 19:46:00,
2013-06-26 14:53:00,87.2,79.1,29.72,NW,326,3.0,9.0,77,0.00,,,0.13,Wunderground v.1.15,2013-06-26 19:53:00,
2013-06-26 14:58:00,87.8,80.1,29.72,NW,315,3.0,9.0,78,0.00,,,0.13,Wunderground v.1.15,2013-06-26 19:58:00,
2013-06-26 15:04:00,87.6,78.3,29.72,WNW,291,4.0,9.0,74,0.00,,,0.13,Wunderground v.1.15,2013-06-26 20:04:00,
2013-06-26 15:10:00,87.8,78.9,29.72,WNW,298,4.0,9.0,75,0.00,,,0.13,Wunderground v.1.15,2013-06-26 20:10:00,
2013-06-26 15:15:00,87.9,78.6,29.71,NW,308,5.0,9.0,74,0.00,,,0.13,Wunderground v.1.15,2013-06-26 20:15:00,
2013-06-26 15:21:00,88.1,77.9,29.71,ENE,57,4.0,4.0,72,0.00,,,0.13,Wunderground v.1.15,2013-06-26 20:21:00,
2013-06-26 15:26:00,88.4,78.6,29.71,NNE,30,2.0,9.0,73,0.00,,,0.13,Wunderground v.1.15,2013-06-26 20:26:00,
2013-06-26 15:32:00,88.9,78.7,29.71,NNW,333,3.0,9.0,72,0.00,,,0.13,Wunderground v.1.15,2013-06-26 20:32:00,
2013-06-26 15:37:00,89.4,78.3,29.71,North,349,2.0,9.0,70,0.00,,,0.13,Wunderground v.1.15,2013-06-26 20:37:00,
2013-06-26 15:50:00,89.0,77.1,29.70,NE,46,3.0,9.0,68,0.00,,,0.13,Wunderground v.1.15,2013-06-26 20:50:00,
2013-06-26 15:56:00,89.1,78.9,29.70,NW,309,1.0,9.0,72,0.00,,,0.13,Wunderground v.1.15,2013-06-26 20:56:00,
2013-06-26 16:01:00,89.0,78.8,29.69,NNW,329,1.0,9.0,72,0.00,,,0.13,Wunderground v.1.15,2013-06-26 21:01:00,
2013-06-26 16:07:00,88.6,78.0,29.70,NW,320,3.0,9.0,71,0.00,,,0.13,Wunderground v.1.15,2013-06-26 21:07:00,
2013-06-26 16:13:00,88.7,78.5,29.70,NW,313,3.0,9.0,72,0.00,,,0.13,Wunderground v.1.15,2013-06-26 21:13:00,
2013-06-26 16:18:00,88.6,78.4,29.70,NW,317,2.0,9.0,72,0.00,,,0.13,Wunderground v.1.15,2013-06-26 21:18:00,
2013-06-26 16:24:00,88.5,78.3,29.70,NNE,27,2.0,9.0,72,0.00,,,0.13,Wunderground v.1.15,2013-06-26 21:24:00,
2013-06-26 16:29:00,88.5,78.3,29.71,ENE,57,1.0,9.0,72,0.00,,,0.13,Wunderground v.1.15,2013-06-26 21:29:00,
2013-06-26 16:35:00,88.5,78.7,29.71,NE,49,2.0,9.0,73,0.00,,,0.13,Wunderground v.1.15,2013-06-26 21:35:00,
2013-06-26 16:41:00,88.5,78.7,29.71,NNE,32,1.0,9.0,73,0.00,,,0.13,Wunderground v.1.15,2013-06-26 21:41:00,
2013-06-26 16:46:00,88.5,78.3,29.71,NE,49,0.0,9.0,72,0.00,,,0.13,Wunderground v.1.15,2013-06-26 21:46:00,
2013-06-26 16:52:00,88.3,78.5,29.72,ENE,62,1.0,9.0,73,0.00,,,0.13,Wunderground v.1.15,2013-06-26 21:52:00,
2013-06-26 16:58:00,87.8,78.5,29.72,NE,56,3.0,9.0,74,0.00,,,0.13,Wunderground v.1.15,2013-06-26 21:58:00,
2013-06-26 17:19:00,86.8,78.3,29.70,NE,56,0.0,9.0,76,0.00,,,0.13,Wunderground v.1.15,2013-06-26 22:19:00,
2013-06-26 17:25:00,86.6,78.9,29.71,NE,56,0.0,9.0,78,0.00,,,0.13,Wunderground v.1.15,2013-06-26 22:25:00,
2013-06-26 17:31:00,86.4,78.7,29.70,NE,56,0.0,9.0,78,0.00,,,0.13,Wunderground v.1.15,2013-06-26 22:31:00,
2013-06-26 17:36:00,85.8,78.9,29.73,North,360,1.0,14.0,80,0.00,,,0.14,Wunderground v.1.15,2013-06-26 22:36:00,
2013-06-26 17:42:00,81.9,72.4,29.72,WNW,292,6.0,6.0,73,0.00,,,0.14,Wunderground v.1.15,2013-06-26 22:42:00,
2013-06-26 17:47:00,80.1,71.5,29.72,North,5,5.0,9.0,75,0.06,,,0.15,Wunderground v.1.15,2013-06-26 22:47:00,
2013-06-26 17:53:00,79.5,71.7,29.71,NW,317,3.0,5.0,77,0.06,,,0.15,Wunderground v.1.15,2013-06-26 22:53:00,
2013-06-26 17:58:00,79.6,72.9,29.72,NW,321,2.0,9.0,80,0.05,,,0.15,Wunderground v.1.15,2013-06-26 22:58:00,
2013-06-26 18:04:00,79.5,73.5,29.72,NW,311,2.0,9.0,82,0.00,,,0.15,Wunderground v.1.15,2013-06-26 23:04:00,
2013-06-26 18:09:00,79.8,74.5,29.72,West,280,3.0,9.0,84,0.00,,,0.15,Wunderground v.1.15,2013-06-26 23:09:00,
2013-06-26 18:15:00,80.1,74.8,29.72,West,281,6.0,9.0,84,0.00,,,0.15,Wunderground v.1.15,2013-06-26 23:15:00,
2013-06-26 18:20:00,80.7,74.7,29.72,West,281,6.0,6.0,82,0.00,,,0.15,Wunderground v.1.15,2013-06-26 23:20:00,
2013-06-26 18:26:00,81.5,74.7,29.72,West,281,4.0,9.0,80,0.00,,,0.15,Wunderground v.1.15,2013-06-26 23:26:00,
2013-06-26 18:32:00,82.5,76.4,29.73,West,281,3.0,9.0,82,0.00,,,0.15,Wunderground v.1.15,2013-06-26 23:32:00,
2013-06-26 18:37:00,82.9,76.5,29.73,West,281,4.0,9.0,81,0.00,,,0.15,Wunderground v.1.15,2013-06-26 23:37:00,
2013-06-26 18:42:00,83.1,77.0,29.73,West,281,4.0,9.0,82,0.00,,,0.15,Wunderground v.1.15,2013-06-26 23:42:00,
2013-06-26 18:48:00,83.3,76.1,29.73,West,281,2.0,9.0,79,0.00,,,0.15,Wunderground v.1.15,2013-06-26 23:48:00,
2013-06-26 18:54:00,83.8,76.2,29.73,West,281,1.0,9.0,78,0.00,,,0.15,Wunderground v.1.15,2013-06-26 23:54:00,
2013-06-26 18:59:00,84.2,76.2,29.73,West,281,1.0,9.0,77,0.00,,,0.15,Wunderground v.1.15,2013-06-26 23:59:00,
2013-06-26 19:05:00,84.3,75.9,29.73,West,281,1.0,9.0,76,0.00,,,0.15,Wunderground v.1.15,2013-06-27 00:05:00,
2013-06-26 19:10:00,84.3,75.9,29.73,West,281,1.0,1.0,76,0.00,,,0.15,Wunderground v.1.15,2013-06-27 00:10:00,
2013-06-26 19:16:00,84.3,75.5,29.73,West,281,0.0,9.0,75,0.00,,,0.15,Wunderground v.1.15,2013-06-27 00:16:00,
2013-06-26 19:21:00,84.2,74.6,29.73,West,281,0.0,9.0,73,0.00,,,0.15,Wunderground v.1.15,2013-06-27 00:21:00,
2013-06-26 19:27:00,84.3,74.7,29.73,West,281,0.0,9.0,73,0.00,,,0.15,Wunderground v.1.15,2013-06-27 00:27:00,
2013-06-26 19:32:00,84.3,74.7,29.73,West,281,0.0,9.0,73,0.00,,,0.15,Wunderground v.1.15,2013-06-27 00:32:00,
2013-06-26 19:38:00,84.3,74.7,29.73,West,281,0.0,9.0,73,0.00,,,0.15,Wunderground v.1.15,2013-06-27 00:38:00,
2013-06-26 19:43:00,84.4,74.8,29.72,West,281,0.0,9.0,73,0.00,,,0.15,Wunderground v.1.15,2013-06-27 00:43:00,
2013-06-26 19:49:00,84.3,75.5,29.72,West,281,0.0,9.0,75,0.00,,,0.15,Wunderground v.1.15,2013-06-27 00:49:00,
2013-06-26 19:54:00,83.9,75.5,29.73,West,281,0.0,9.0,76,0.00,,,0.15,Wunderground v.1.15,2013-06-27 00:54:00,
2013-06-26 20:00:00,83.6,77.1,29.73,West,281,0.0,9.0,81,0.00,,,0.15,Wunderground v.1.15,2013-06-27 01:00:00,
2013-06-26 20:17:00,82.4,77.1,29.72,West,281,0.0,9.0,84,0.00,,,0.15,Wunderground v.1.15,2013-06-27 01:17:00,
2013-06-26 20:23:00,82.0,76.7,29.73,West,281,0.0,9.0,84,0.00,,,0.15,Wunderground v.1.15,2013-06-27 01:23:00,
2013-06-26 20:28:00,81.6,76.6,29.72,West,281,0.0,9.0,85,0.00,,,0.15,Wunderground v.1.15,2013-06-27 01:28:00,
2013-06-26 20:34:00,81.1,76.2,29.73,West,281,0.0,9.0,85,0.00,,,0.15,Wunderground v.1.15,2013-06-27 01:34:00,
2013-06-26 20:39:00,81.1,75.8,29.73,West,281,1.0,9.0,84,0.00,,,0.15,Wunderground v.1.15,2013-06-27 01:39:00,
2013-06-26 20:48:00,81.6,74.8,29.73,NW,326,2.0,9.0,80,0.00,,,0.15,Wunderground v.1.15,2013-06-27 01:48:00,
2013-06-26 20:58:00,81.8,74.3,29.73,NNW,336,1.0,9.0,78,0.00,,,0.15,Wunderground v.1.15,2013-06-27 01:58:00,
2013-06-26 21:03:00,81.8,74.3,29.73,NW,323,1.0,9.0,78,0.00,,,0.15,Wunderground v.1.15,2013-06-27 02:03:00,
2013-06-26 21:09:00,81.6,73.7,29.74,North,355,1.0,9.0,77,0.00,,,0.15,Wunderground v.1.15,2013-06-27 02:09:00,
2013-06-26 21:14:00,81.4,73.5,29.74,North,355,1.0,9.0,77,0.00,,,0.15,Wunderground v.1.15,2013-06-27 02:14:00,
2013-06-26 21:20:00,81.2,73.7,29.74,North,355,0.0,9.0,78,0.00,,,0.15,Wunderground v.1.15,2013-06-27 02:20:00,
2013-06-26 21:25:00,81.0,73.5,29.74,NNE,33,0.0,9.0,78,0.00,,,0.15,Wunderground v.1.15,2013-06-27 02:25:00,
2013-06-26 21:31:00,80.7,73.6,29.75,NNE,22,0.0,9.0,79,0.00,,,0.15,Wunderground v.1.15,2013-06-27 02:31:00,
2013-06-26 21:36:00,80.5,73.4,29.75,NNE,20,0.0,9.0,79,0.00,,,0.15,Wunderground v.1.15,2013-06-27 02:36:00,
2013-06-26 21:42:00,80.3,73.2,29.75,NNE,15,1.0,9.0,79,0.00,,,0.15,Wunderground v.1.15,2013-06-27 02:42:00,
2013-06-26 21:47:00,80.2,72.7,29.75,North,360,1.0,9.0,78,0.00,,,0.15,Wunderground v.1.15,2013-06-27 02:47:00,
2013-06-26 21:53:00,80.3,72.8,29.75,NNW,338,1.0,9.0,78,0.00,,,0.15,Wunderground v.1.15,2013-06-27 02:53:00,
2013-06-26 21:58:00,80.2,72.7,29.76,NNW,338,1.0,9.0,78,0.00,,,0.15,Wunderground v.1.15,2013-06-27 02:58:00,
2013-06-26 22:04:00,79.9,72.8,29.76,NNW,331,1.0,9.0,79,0.00,,,0.15,Wunderground v.1.15,2013-06-27 03:04:00,
2013-06-26 22:10:00,79.5,72.8,29.76,NNW,331,1.0,1.0,80,0.00,,,0.15,Wunderground v.1.15,2013-06-27 03:10:00,
2013-06-26 22:15:00,78.9,72.6,29.76,NNW,331,1.0,9.0,81,0.00,,,0.15,Wunderground v.1.15,2013-06-27 03:15:00,
2013-06-26 22:21:00,78.8,72.1,29.77,NW,317,1.0,5.0,80,0.00,,,0.15,Wunderground v.1.15,2013-06-27 03:21:00,
2013-06-26 22:26:00,78.7,72.4,29.77,NW,317,2.0,9.0,81,0.00,,,0.15,Wunderground v.1.15,2013-06-27 03:26:00,
2013-06-26 22:32:00,78.4,72.1,29.77,NW,317,2.0,9.0,81,0.00,,,0.15,Wunderground v.1.15,2013-06-27 03:32:00,
2013-06-26 22:37:00,78.0,72.1,29.77,NW,317,1.0,9.0,82,0.00,,,0.15,Wunderground v.1.15,2013-06-27 03:37:00,
2013-06-26 22:43:00,77.8,71.9,29.77,NW,317,1.0,9.0,82,0.00,,,0.15,Wunderground v.1.15,2013-06-27 03:43:00,
2013-06-26 22:48:00,78.1,71.8,29.78,NW,321,2.0,9.0,81,0.00,,,0.15,Wunderground v.1.15,2013-06-27 03:48:00,
2013-06-26 22:54:00,78.5,71.4,29.78,NW,321,3.0,9.0,79,0.00,,,0.15,Wunderground v.1.15,2013-06-27 03:54:00,
2013-06-26 22:59:00,78.8,71.4,29.78,NW,325,2.0,9.0,78,0.00,,,0.15,Wunderground v.1.15,2013-06-27 03:59:00,
2013-06-26 23:01:00,78.9,71.5,29.78,NNW,327,2.0,9.0,78,0.00,,,0.15,Wunderground v.1.15,2013-06-27 04:01:00,
2013-06-26 23:02:00,78.9,71.1,29.78,NNW,331,2.0,9.0,77,0.00,,,0.15,Wunderground v.1.15,2013-06-27 04:02:00,
2013-06-26 23:07:00,79.0,71.2,29.79,NW,321,2.0,9.0,77,0.00,,,0.15,Wunderground v.1.15,2013-06-27 04:07:00,
2013-06-26 23:08:00,78.9,71.1,29.79,NW,321,2.0,9.0,77,0.00,,,0.15,Wunderground v.1.15,2013-06-27 04:08:00,
2013-06-26 23:12:00,78.9,71.5,29.79,NW,318,2.0,9.0,78,0.00,,,0.15,Wunderground v.1.15,2013-06-27 04:12:00,
2013-06-26 23:14:00,78.9,71.5,29.79,NW,318,2.0,9.0,78,0.00,,,0.15,Wunderground v.1.15,2013-06-27 04:14:00,
2013-06-26 23:19:00,78.3,71.6,29.79,NW,318,1.0,9.0,80,0.00,,,0.15,Wunderground v.1.15,2013-06-27 04:19:00,
2013-06-26 23:25:00,77.4,71.5,29.80,NW,318,1.0,9.0,82,0.00,,,0.15,Wunderground v.1.15,2013-06-27 04:25:00,
2013-06-26 23:30:00,76.9,71.0,29.80,NW,318,0.0,9.0,82,0.00,,,0.15,Wunderground v.1.15,2013-06-27 04:30:00,
2013-06-26 23:36:00,76.9,71.0,29.80,NW,317,1.0,9.0,82,0.00,,,0.15,Wunderground v.1.15,2013-06-27 04:36:00,
2013-06-26 23:41:00,77.2,70.9,29.80,NW,317,1.0,9.0,81,0.00,,,0.15,Wunderground v.1.15,2013-06-27 04:41:00,
2013-06-26 23:47:00,77.5,71.2,29.80,NW,318,1.0,9.0,81,0.00,,,0.15,Wunderground v.1.15,2013-06-27 04:47:00,
2013-06-26 23:52:00,77.4,71.1,29.80,NW,318,2.0,9.0,81,0.00,,,0.15,Wunderground v.1.15,2013-06-27 04:52:00,
2013-06-26 23:58:00,77.2,70.9,29.80,NW,318,1.0,9.0,81,0.00,,,0.15,Wunderground v.1.15,2013-06-27 04:58:00,